This is the latest recevied weather packets stored in our database for station/object K5NAN. If no packets are shown the sender has not sent any weather packets the latest 10 day(s).
| Time | Temp. | Humidity | Pressure | Rain* | Wind** | Luminosity | Snow |
|---|---|---|---|---|---|---|---|
| 1777763359 | 23.33° C | 35% | 1017.5 hPa | 0 mm | - | 207 W/m² | - |
| 1777763057 | 23.89° C | 36% | 1017.5 hPa | 0 mm | - | 228 W/m² | - |
| 1777762755 | 23.89° C | 37% | 1017.4 hPa | 0 mm | - | 147 W/m² | - |
| 1777762450 | 23.89° C | 32% | 1017.6 hPa | 0 mm | - | 263 W/m² | - |
| 1777762148 | 23.89° C | 35% | 1017.5 hPa | 0 mm | - | 275 W/m² | - |
| 1777761843 | 23.89° C | 36% | 1017.4 hPa | 0 mm | - | 296 W/m² | - |
| 1777761541 | 23.89° C | 33% | 1017.5 hPa | 0 mm | - | 117 W/m² | - |
| 1777761238 | 23.89° C | 36% | 1017.7 hPa | 0 mm | - | 344 W/m² | - |
| 1777760936 | 23.89° C | 35% | 1017.7 hPa | 0 mm | - | 365 W/m² | - |
| 1777760634 | 23.89° C | 37% | 1017.7 hPa | 0 mm | - | 381 W/m² | - |
| 1777760329 | 23.89° C | 36% | 1017.6 hPa | 0 mm | - | 394 W/m² | - |
| 1777760026 | 23.89° C | 36% | 1017.7 hPa | 0 mm | - | 412 W/m² | - |
| 1777759723 | 23.33° C | 36% | 1017.7 hPa | 0 mm | - | 423 W/m² | - |
| 1777759419 | 23.33° C | 36% | 1017.8 hPa | 0 mm | - | 441 W/m² | - |
| 1777759115 | 23.89° C | 35% | 1017.8 hPa | 0 mm | - | 195 W/m² | - |
| 1777758813 | 23.89° C | 36% | 1017.7 hPa | 0 mm | - | 478 W/m² | - |
| 1777758510 | 23.89° C | 33% | 1017.8 hPa | 0 mm | - | 492 W/m² | - |
| 1777758206 | 23.89° C | 35% | 1017.9 hPa | 0 mm | - | 505 W/m² | - |
| 1777757904 | 23.89° C | 36% | 1017.9 hPa | 0 mm | - | 533 W/m² | - |
| 1777757601 | 23.89° C | 35% | 1018 hPa | 0 mm | - | 532 W/m² | - |
| 1777757300 | 23.89° C | 35% | 1017.9 hPa | 0 mm | - | 547 W/m² | - |
| 1777756998 | 23.89° C | 32% | 1017.9 hPa | 0 mm | - | 565 W/m² | - |
| 1777756695 | 24.44° C | 36% | 1018 hPa | 0 mm | - | 580 W/m² | - |
| 1777756390 | 23.89° C | 34% | 1018.2 hPa | 0 mm | - | 595 W/m² | - |
| 1777756088 | 23.89° C | 36% | 1018.2 hPa | 0 mm | - | 609 W/m² | - |
* Rain latest hour (hover to see other rain measurements)
** Current wind speed in m/s (hover to see current wind gust speed)